GW4629 Weather Reports


Display with metric or nautical units.
time (UTC)temp
F
wind
direction
speed
MPH
gust
MPH
rain 1hr
in
rain 24hr
in
rain mn
in
humidity
%
barometer
mb
20260904040031 70 143 0.0 1.0 0.00 0.00 0.00 99 1024.3
20260904035531 70 125 1.0 1.0 0.00 0.00 0.00 99 1024.1
20260904035030 70 125 1.0 1.0 0.00 0.00 0.00 99 1024.1
20260904034525 70 164 0.0 1.0 0.00 0.00 0.00 99 1024.1
20260904034021 70 164 0.0 1.0 0.00 0.00 0.00 99 1024.1
20260904033517 70 135 0.0 0.0 0.00 0.00 0.00 99 1024.2
20260904033014 70 135 0.0 0.0 0.00 0.00 0.00 99 1024.2
20260904032508 71 30 3.0 4.0 0.00 0.00 0.00 99 1024.2
20260904032008 71 30 3.0 4.0 0.00 0.00 0.00 99 1024.2
20260904031503 71 88 1.0 1.0 0.00 0.00 0.00 99 1024.1
20260904030959 71 88 1.0 1.0 0.00 0.00 0.00 99 1024.1
20260904030454 71 5 7.0 9.0 0.00 0.00 0.00 99 1024.1
20260904025949 71 5 7.0 9.0 0.00 0.00 0.00 99 1024.1
20260904025445 71 317 8.0 9.0 0.00 0.00 0.00 99 1023.8
20260904024939 71 317 8.0 9.0 0.00 0.00 0.00 99 1023.8
20260904024435 71 303 4.0 6.0 0.00 0.00 0.00 99 1023.8
20260904023930 71 303 4.0 6.0 0.00 0.00 0.00 99 1023.8
20260904023426 70 57 1.0 2.0 0.00 0.00 0.00 99 1023.8
20260904022926 70 57 1.0 2.0 0.00 0.00 0.00 99 1023.8
20260904022422 71 336 4.0 4.0 0.00 0.00 0.00 99 1023.3
20260904021919 71 336 4.0 4.0 0.00 0.00 0.00 99 1023.3
20260904021414 72 31 6.0 7.0 0.00 0.00 0.00 99 1023.2
20260904020909 72 31 6.0 7.0 0.00 0.00 0.00 99 1023.2
20260904020404 72 295 12.0 16.0 0.00 0.00 0.00 99 1023.1
20260904015902 72 295 12.0 16.0 0.00 0.00 0.00 99 1023.1
20260904015359 72 308 8.0 10.0 0.00 0.00 0.00 99 1023.3
20260904014857 72 308 8.0 10.0 0.00 0.00 0.00 99 1023.3
20260904014352 73 311 11.0 15.0 0.00 0.00 0.00 99 1022.7
20260904013848 73 311 11.0 15.0 0.00 0.00 0.00 99 1022.7
20260904013344 72 273 14.0 16.0 0.00 0.00 0.00 99 1022.8
20260904012839 72 273 14.0 16.0 0.00 0.00 0.00 99 1022.8
20260904012334 72 259 9.0 10.0 0.00 0.00 0.00 99 1023.1
20260904011833 72 259 9.0 10.0 0.00 0.00 0.00 99 1023.1
20260904011328 73 269 9.0 10.0 0.00 0.00 0.00 99 1022.9
20260904010823 73 269 9.0 10.0 0.00 0.00 0.00 99 1022.9
20260904010321 75 349 11.0 13.0 0.00 0.00 0.00 99 1022.8
20260904005820 75 349 11.0 13.0 0.00 0.00 0.00 99 1022.8
20260904005316 75 318 14.0 17.0 0.00 0.00 0.00 99 1022.6
20260904004811 75 318 14.0 17.0 0.00 0.00 0.00 99 1022.6
20260904004307 75 8 12.0 14.0 0.00 0.00 0.00 99 1022.8
20260904003802 75 8 12.0 14.0 0.00 0.00 0.00 99 1022.8
20260904003258 75 29 10.0 11.0 0.00 0.00 0.00 99 1022.6
20260904002753 75 29 10.0 11.0 0.00 0.00 0.00 99 1022.6
20260904002250 75 6 14.0 17.0 0.00 0.00 0.00 99 1022.8
20260904001749 75 6 14.0 17.0 0.00 0.00 0.00 99 1022.8
20260904001244 75 0 15.0 18.0 0.00 0.00 0.00 99 1022.7
20260904000739 75 0 15.0 18.0 0.00 0.00 0.00 99 1022.7
20260904000233 75 352 13.0 18.0 0.00 0.00 0.00 99 1022.6
20260903235727 75 352 13.0 18.0 0.00 0.00 0.00 99 1022.6
20260903235224 76 330 13.0 16.0 0.00 0.00 0.00 99 1022.7
20260903234723 76 330 13.0 16.0 0.00 0.00 0.00 99 1022.7
20260903234220 76 347 13.0 15.0 0.00 0.00 0.00 99 1022.6
20260903233715 76 347 13.0 15.0 0.00 0.00 0.00 99 1022.6
20260903233211 76 345 13.0 16.0 0.00 0.00 0.00 99 1022.6
20260903232710 76 345 13.0 16.0 0.00 0.00 0.00 99 1022.6
20260903232206 76 325 13.0 16.0 0.00 0.00 0.00 99 1022.6
20260903231705 76 325 13.0 16.0 0.00 0.00 0.00 99 1022.6
20260903231200 76 16 11.0 13.0 0.00 0.00 0.00 99 1022.3
20260903230656 76 16 11.0 13.0 0.00 0.00 0.00 99 1022.3
20260903230155 77 340 6.0 8.0 0.00 0.00 0.00 99 1022.6
20260903225652 77 340 6.0 8.0 0.00 0.00 0.00 99 1022.6
20260903225148 78 311 4.0 6.0 0.00 0.00 0.00 99 1022.4
20260903224644 78 311 4.0 6.0 0.00 0.00 0.00 99 1022.4
20260903224140 79 356 4.0 6.0 0.00 0.00 0.00 99 1022.8
20260903223636 79 358 6.0 7.0 0.00 0.00 0.00 99 1022.7
20260903223134 79 358 6.0 7.0 0.00 0.00 0.00 99 1022.7
20260903222629 80 7 9.0 10.0 0.00 0.00 0.00 99 1022.8
20260903222127 80 7 9.0 10.0 0.00 0.00 0.00 99 1022.8
20260903221624 81 57 9.0 11.0 0.00 0.00 0.00 99 1022.9
20260903221121 81 57 9.0 11.0 0.00 0.00 0.00 99 1022.9
20260903220620 82 104 3.0 3.0 0.00 0.00 0.00 99 1022.8
20260903220120 82 104 3.0 3.0 0.00 0.00 0.00 99 1022.8
20260903215619 80 44 7.0 10.0 0.00 0.00 0.00 99 1022.7
20260903215114 80 44 7.0 10.0 0.00 0.00 0.00 99 1022.7
20260903214613 81 217 9.0 15.0 0.00 0.00 0.00 99 1022.7
20260903214108 81 217 9.0 15.0 0.00 0.00 0.00 99 1022.7
20260903213603 80 93 5.0 6.0 0.00 0.00 0.00 99 1022.9
20260903213059 80 93 5.0 6.0 0.00 0.00 0.00 99 1022.9
20260903212555 81 341 2.0 3.0 0.00 0.00 0.00 99 1022.9
20260903212050 81 341 2.0 3.0 0.00 0.00 0.00 99 1022.9
20260903211545 81 15 5.0 7.0 0.00 0.00 0.00 99 1023.2
20260903211042 81 15 5.0 7.0 0.00 0.00 0.00 99 1023.2
20260903210542 80 205 5.0 7.0 0.00 0.00 0.00 99 1023.1
20260903210038 80 205 5.0 7.0 0.00 0.00 0.00 99 1023.1
20260903205537 81 60 6.0 8.0 0.00 0.00 0.00 99 1023.4
20260903205031 81 60 6.0 8.0 0.00 0.00 0.00 99 1023.4
20260903204527 80 89 7.0 8.0 0.00 0.00 0.00 99 1023.4
20260903204023 80 89 7.0 8.0 0.00 0.00 0.00 99 1023.4
20260903203518 79 43 7.0 9.0 0.00 0.00 0.00 99 1023.6
20260903203018 79 43 7.0 9.0 0.00 0.00 0.00 99 1023.6
20260903202514 78 34 7.0 8.0 0.00 0.00 0.00 99 1023.7
20260903202009 78 34 7.0 8.0 0.00 0.00 0.00 99 1023.7
20260903201504 78 358 9.0 13.0 0.00 0.00 0.00 99 1023.6
20260903201003 78 358 9.0 13.0 0.00 0.00 0.00 99 1023.6
20260903200458 80 229 3.0 4.0 0.00 0.00 0.00 99 1023.6
20260903195952 80 229 3.0 4.0 0.00 0.00 0.00 99 1023.6
20260903195449 77 84 6.0 9.0 0.00 0.00 0.00 99 1023.6
20260903194943 77 84 6.0 9.0 0.00 0.00 0.00 99 1023.6
20260903194439 76 336 3.0 4.0 0.00 0.00 0.00 99 1023.6
20260903193934 76 336 3.0 4.0 0.00 0.00 0.00 99 1023.6
20260903193430 80 316 4.0 4.0 0.00 0.00 0.00 99 1023.8
20260903192926 80 316 4.0 4.0 0.00 0.00 0.00 99 1023.8
20260903192422 79 357 8.0 13.0 0.00 0.00 0.00 99 1023.7
20260903191917 79 357 8.0 13.0 0.00 0.00 0.00 99 1023.7
20260903191414 77 77 11.0 13.0 0.00 0.00 0.00 99 1024.1
20260903190913 77 77 11.0 13.0 0.00 0.00 0.00 99 1024.1
20260903190407 76 74 5.0 7.0 0.00 0.00 0.00 99 1024.2
20260903185906 76 74 5.0 7.0 0.00 0.00 0.00 99 1024.2
20260903185402 77 76 3.0 4.0 0.00 0.00 0.00 99 1024.2
20260903184857 77 76 3.0 4.0 0.00 0.00 0.00 99 1024.2
20260903184355 76 107 4.0 6.0 0.00 0.00 0.00 99 1024.2
20260903183848 76 107 4.0 6.0 0.00 0.00 0.00 99 1024.2
20260903183343 75 61 10.0 14.0 0.00 0.00 0.00 99 1024.3
20260903182842 75 61 10.0 14.0 0.00 0.00 0.00 99 1024.3
20260903182341 73 66 12.0 14.0 0.00 0.00 0.00 99 1024.3
20260903181836 73 66 12.0 14.0 0.00 0.00 0.00 99 1024.3
20260903181332 72 15 4.0 7.0 0.00 0.00 0.00 99 1024.6
20260903180826 72 15 4.0 7.0 0.00 0.00 0.00 99 1024.6
20260903180325 71 68 13.0 15.0 0.00 0.00 0.00 99 1024.6
20260903175819 71 68 13.0 15.0 0.00 0.00 0.00 99 1024.6
20260903175318 71 71 5.0 9.0 0.00 0.00 0.00 99 1024.6
20260903174813 71 71 5.0 9.0 0.00 0.00 0.00 99 1024.6
20260903174308 71 79 12.0 16.0 0.00 0.00 0.00 99 1024.5
20260903173802 71 79 12.0 16.0 0.00 0.00 0.00 99 1024.5
20260903173258 70 93 18.0 19.0 0.00 0.00 0.00 99 1024.5
20260903172754 70 93 18.0 19.0 0.00 0.00 0.00 99 1024.5
20260903172248 70 57 11.0 14.0 0.00 0.00 0.00 99 1024.2
20260903171743 70 57 11.0 14.0 0.00 0.00 0.00 99 1024.2
20260903171239 71 60 4.0 4.0 0.00 0.00 0.00 99 1024.7
20260903170737 71 60 4.0 4.0 0.00 0.00 0.00 99 1024.7
20260903170233 71 19 3.0 7.0 0.00 0.00 0.00 99 1024.5
20260903165731 71 19 3.0 7.0 0.00 0.00 0.00 99 1024.5
20260903165226 69 92 4.0 7.0 0.00 0.00 0.00 99 1024.6
20260903164721 69 92 4.0 7.0 0.00 0.00 0.00 99 1024.6
20260903164217 69 33 5.0 6.0 0.00 0.00 0.00 99 1024.6
20260903163716 69 33 5.0 6.0 0.00 0.00 0.00 99 1024.6
20260903163213 69 65 8.0 10.0 0.00 0.00 0.00 99 1024.5
20260903162708 69 65 8.0 10.0 0.00 0.00 0.00 99 1024.5
20260903162204 69 89 6.0 8.0 0.00 0.00 0.00 99 1024.5
20260903161700 69 89 6.0 8.0 0.00 0.00 0.00 99 1024.5
20260903161149 69 86 1.0 1.0 0.00 0.00 0.00 99 1024.7
20260903160645 69 86 1.0 1.0 0.00 0.00 0.00 99 1024.7
20260903160139 68 94 2.0 3.0 0.00 0.00 0.00 99 1024.6
20260903155638 68 94 2.0 3.0 0.00 0.00 0.00 99 1024.6
20260903155133 68 45 7.0 9.0 0.00 0.00 0.00 99 1024.1
20260903154629 68 45 7.0 9.0 0.00 0.00 0.00 99 1024.1
20260903154125 68 78 7.0 10.0 0.00 0.00 0.00 99 1024.5
20260903153621 68 78 7.0 10.0 0.00 0.00 0.00 99 1024.5
20260903153116 68 70 9.0 10.0 0.00 0.00 0.00 99 1024.2
20260903152612 68 70 9.0 10.0 0.00 0.00 0.00 99 1024.2
20260903152109 68 70 7.0 9.0 0.00 0.00 0.00 99 1024.5
20260903151607 68 70 7.0 9.0 0.00 0.00 0.00 99 1024.5
20260903151103 69 107 5.0 6.0 0.00 0.00 0.00 99 1024.5
20260903150602 69 107 5.0 6.0 0.00 0.00 0.00 99 1024.5
20260903150058 70 83 2.0 3.0 0.00 0.00 0.00 99 1024.5
20260903145557 70 83 2.0 3.0 0.00 0.00 0.00 99 1024.5
20260903145052 71 139 0.0 1.0 0.00 0.00 0.00 99 1024.3
20260903144551 71 166 1.0 1.0 0.00 0.00 0.00 99 1024.2
20260903144048 71 166 1.0 1.0 0.00 0.00 0.00 99 1024.2
20260903143544 69 109 4.0 4.0 0.00 0.00 0.00 99 1024.1
20260903143039 69 109 4.0 4.0 0.00 0.00 0.00 99 1024.1
20260903142534 70 104 2.0 2.0 0.00 0.00 0.00 99 1024.2
20260903142031 70 104 2.0 2.0 0.00 0.00 0.00 99 1024.2
20260903141526 67 33 1.0 1.0 0.00 0.00 0.00 99 1023.9
20260903141021 67 33 1.0 1.0 0.00 0.00 0.00 99 1023.9
20260903140517 67 64 7.0 8.0 0.00 0.00 0.00 99 1023.9
20260903140012 67 64 7.0 8.0 0.00 0.00 0.00 99 1023.9
20260903135507 66 72 7.0 9.0 0.00 0.00 0.00 99 1023.7
20260903135002 66 72 7.0 9.0 0.00 0.00 0.00 99 1023.7
20260903134501 65 25 11.0 15.0 0.00 0.00 0.00 99 1023.3
20260903133958 65 25 11.0 15.0 0.00 0.00 0.00 99 1023.3
20260903133455 65 61 6.0 7.0 0.00 0.00 0.00 99 1023.3
20260903132949 65 61 6.0 7.0 0.00 0.00 0.00 99 1023.3
20260903132445 65 80 13.0 16.0 0.00 0.00 0.00 99 1023.3
20260903131945 65 80 13.0 16.0 0.00 0.00 0.00 99 1023.3
20260903131440 65 51 7.0 9.0 0.00 0.00 0.00 99 1023.4
20260903130939 65 51 7.0 9.0 0.00 0.00 0.00 99 1023.4
20260903130434 63 87 10.0 11.0 0.00 0.00 0.00 99 1023.4
20260903125933 63 87 10.0 11.0 0.00 0.00 0.00 99 1023.4
20260903125427 65 135 1.0 2.0 0.00 0.00 0.00 99 1023.1
20260903124926 65 135 1.0 2.0 0.00 0.00 0.00 99 1023.1
20260903124422 65 109 9.0 10.0 0.00 0.00 0.00 99 1023.2
20260903123920 65 109 9.0 10.0 0.00 0.00 0.00 99 1023.2
20260903123415 64 88 5.0 6.0 0.00 0.00 0.00 99 1023.3
20260903122914 64 88 5.0 6.0 0.00 0.00 0.00 99 1023.3
20260903122409 66 97 7.0 9.0 0.00 0.00 0.00 99 1022.8
20260903121908 66 97 7.0 9.0 0.00 0.00 0.00 99 1022.8
20260903121403 66 332 6.0 11.0 0.00 0.00 0.00 99 1022.8
20260903120859 66 332 6.0 11.0 0.00 0.00 0.00 99 1022.8
20260903120358 65 100 16.0 18.0 0.00 0.00 0.00 99 1022.7
20260903115856 65 100 16.0 18.0 0.00 0.00 0.00 99 1022.7
20260903115351 65 31 4.0 7.0 0.00 0.00 0.00 99 1022.7
20260903114846 65 31 4.0 7.0 0.00 0.00 0.00 99 1022.7
20260903114342 66 78 7.0 8.0 0.00 0.00 0.00 99 1023.1
20260903113837 66 78 7.0 8.0 0.00 0.00 0.00 99 1023.1
20260903113333 64 73 3.0 4.0 0.00 0.00 0.00 99 1022.9
20260903112829 64 73 3.0 4.0 0.00 0.00 0.00 99 1022.9
20260903112324 61 11 2.0 3.0 0.00 0.00 0.00 99 1022.9
20260903111823 61 11 2.0 3.0 0.00 0.00 0.00 99 1022.9
20260903111322 65 263 2.0 2.0 0.00 0.00 0.00 99 1022.9
20260903110819 65 263 2.0 2.0 0.00 0.00 0.00 99 1022.9
20260903110314 65 149 3.0 3.0 0.00 0.00 0.00 99 1022.9
20260903105809 65 149 3.0 3.0 0.00 0.00 0.00 99 1022.9
20260903105306 66 142 3.0 8.0 0.00 0.00 0.00 99 1022.8
20260903104806 66 142 3.0 8.0 0.00 0.00 0.00 99 1022.8
20260903104258 65 352 6.0 8.0 0.00 0.00 0.00 99 1022.8
20260903103754 65 352 6.0 8.0 0.00 0.00 0.00 99 1022.8
20260903103251 65 90 2.0 2.0 0.00 0.00 0.00 99 1022.8
20260903102746 65 90 2.0 2.0 0.00 0.00 0.00 99 1022.8
20260903102245 66 185 4.0 6.0 0.00 0.00 0.00 99 1023.3
20260903101744 66 185 4.0 6.0 0.00 0.00 0.00 99 1023.3
20260903101240 66 146 2.0 2.0 0.00 0.00 0.00 99 1023.2
20260903100735 66 146 2.0 2.0 0.00 0.00 0.00 99 1023.2
20260903100229 66 64 5.0 6.0 0.00 0.00 0.00 99 1023.2
20260903095727 66 64 5.0 6.0 0.00 0.00 0.00 99 1023.2
20260903095222 64 53 1.0 1.0 0.00 0.00 0.00 99 1023.2
20260903094717 64 53 1.0 1.0 0.00 0.00 0.00 99 1023.2
20260903094212 62 223 1.0 1.0 0.00 0.00 0.00 99 1023.3
20260903093708 62 223 1.0 1.0 0.00 0.00 0.00 99 1023.3
20260903093203 62 320 3.0 3.0 0.00 0.00 0.00 99 1023.4
20260903092702 62 320 3.0 3.0 0.00 0.00 0.00 99 1023.4
20260903092157 64 135 4.0 4.0 0.00 0.00 0.00 99 1023.3
20260903091655 64 135 4.0 4.0 0.00 0.00 0.00 99 1023.3
20260903091150 63 76 6.0 8.0 0.00 0.00 0.00 99 1023.3
20260903090646 63 76 6.0 8.0 0.00 0.00 0.00 99 1023.3
20260903090145 63 105 2.0 2.0 0.00 0.00 0.00 99 1023.2
20260903085644 63 105 2.0 2.0 0.00 0.00 0.00 99 1023.2
20260903085140 63 43 4.0 4.0 0.00 0.00 0.00 99 1023.4
20260903084637 63 43 4.0 4.0 0.00 0.00 0.00 99 1023.4
20260903084132 60 146 5.0 7.0 0.00 0.00 0.00 99 1023.7
20260903083627 60 146 5.0 7.0 0.00 0.00 0.00 99 1023.7
20260903083121 60 245 6.0 10.0 0.00 0.00 0.00 99 1023.6
20260903082616 60 245 6.0 10.0 0.00 0.00 0.00 99 1023.6
20260903082112 60 133 5.0 6.0 0.00 0.00 0.00 99 1023.3
20260903081607 60 133 5.0 6.0 0.00 0.00 0.00 99 1023.3
20260903081103 61 152 8.0 9.0 0.00 0.00 0.00 99 1023.4
20260903080558 61 152 8.0 9.0 0.00 0.00 0.00 99 1023.4
20260903080055 61 119 9.0 10.0 0.00 0.00 0.00 99 1023.3
20260903075550 61 119 9.0 10.0 0.00 0.00 0.00 99 1023.3
20260903075045 62 160 10.0 15.0 0.00 0.00 0.00 99 1023.2
20260903074544 62 160 10.0 15.0 0.00 0.00 0.00 99 1023.2
20260903074039 62 132 15.0 16.0 0.00 0.00 0.00 99 1023.6
20260903073535 62 132 15.0 16.0 0.00 0.00 0.00 99 1023.6
20260903073031 62 128 12.0 14.0 0.00 0.00 0.00 99 1023.6
20260903072526 62 128 12.0 14.0 0.00 0.00 0.00 99 1023.6
20260903072022 63 105 7.0 8.0 0.00 0.00 0.00 99 1023.8
20260903071519 63 105 7.0 8.0 0.00 0.00 0.00 99 1023.8
20260903071018 63 166 8.0 9.0 0.00 0.00 0.00 99 1023.9
20260903070518 63 166 8.0 9.0 0.00 0.00 0.00 99 1023.9
20260903070015 64 125 9.0 13.0 0.00 0.00 0.00 99 1024.2
20260903065508 64 125 9.0 13.0 0.00 0.00 0.00 99 1024.2
20260903064536 65 129 7.0 8.0 0.00 0.00 0.00 99 1024.3
20260903064032 65 129 7.0 8.0 0.00 0.00 0.00 99 1024.3
20260903063527 65 129 7.0 8.0 0.00 0.00 0.00 99 1024.3
20260903063022 67 105 5.0 6.0 0.00 0.00 0.00 99 1024.2
20260903062517 67 105 5.0 6.0 0.00 0.00 0.00 99 1024.2
20260903062013 65 158 4.0 4.0 0.00 0.00 0.00 99 1024.1
20260903061508 65 158 4.0 4.0 0.00 0.00 0.00 99 1024.1
20260903060346 65 30 2.0 2.0 0.00 0.00 0.00 99 1023.8
20260903055844 65 30 2.0 2.0 0.00 0.00 0.00 99 1023.8
20260903055343 64 144 0.0 0.0 0.00 0.00 0.00 99 1023.9
20260903054838 64 144 0.0 0.0 0.00 0.00 0.00 99 1023.9
20260903054338 64 247 0.0 1.0 0.00 0.00 0.00 99 1023.7
20260903053834 64 247 0.0 1.0 0.00 0.00 0.00 99 1023.7
20260903053329 65 120 3.0 3.0 0.00 0.00 0.00 99 1023.9
20260903052825 65 120 3.0 3.0 0.00 0.00 0.00 99 1023.9
20260903052320 65 299 7.0 8.0 0.00 0.00 0.00 99 1024.1
20260903051816 65 299 7.0 8.0 0.00 0.00 0.00 99 1024.1
20260903051311 65 96 3.0 3.0 0.00 0.00 0.00 99 1024.5
20260903050807 65 96 3.0 3.0 0.00 0.00 0.00 99 1024.5
20260903050306 65 92 0.0 1.0 0.00 0.00 0.00 99 1024.5
20260903045800 65 92 0.0 1.0 0.00 0.00 0.00 99 1024.5
20260903045256 64 83 3.0 3.0 0.00 0.00 0.00 99 1024.3
20260903044753 64 83 3.0 3.0 0.00 0.00 0.00 99 1024.3
20260903044247 65 100 3.0 3.0 0.00 0.00 0.00 99 1024.2
20260903043744 65 100 3.0 3.0 0.00 0.00 0.00 99 1024.2
20260903043244 66 147 5.0 6.0 0.00 0.00 0.00 99 1023.9
20260903042743 66 147 5.0 6.0 0.00 0.00 0.00 99 1023.9
20260903042239 66 157 8.0 9.0 0.00 0.00 0.00 99 1024.1
20260903041735 66 157 8.0 9.0 0.00 0.00 0.00 99 1024.1
20260903041231 67 95 1.0 2.0 0.00 0.00 0.00 99 1023.9
20260903040730 67 95 1.0 2.0 0.00 0.00 0.00 99 1023.9